Date String (YYYY-MM-DD hh:mm:ss) UTC,Instrument flags,absolute air pressure of the measurement (hPa),sample flow rate (lpm),inlet stack bypass flow (lpm),air temperature of the measurement (°C),ambient temperature measured by the external sensor (°C),aerosol sample conditioner tube jacket temperature (°C),OPC LED temperature (°C),internal box temperature (°C),relative humidity of the measurement (%),span deviation,mass concentration of particles derived from Lorenz-Mie calculation of OPC scattering (μg/m³),mass concentration of particles derived from Lorenz-Mie calculation of OPC scattering (μg/m³),mass concentration of particles derived from Lorenz-Mie calculation of OPC scattering (μg/m³)
DateTimeUTC,F1_M11,P_M11,Q1_M11,Q2_M11,T1_M11,T2_M11,T3_M11,T4_M11,T5_M11,U1_M11,ZSPAN_M11,X2_M11,X0_M11,X1_M11
2023-08-08 17:00:00,SystemResetWarning,0831.3,5.00,000.00,029.0,027.0,000.0,037.5,030.6,32.5,0000.8,0006.58,0014.06,0005.57
2023-08-08 17:01:00,SystemResetWarning,0831.4,5.00,000.00,029.0,027.3,000.0,037.5,030.7,32.2,-000.3,0006.57,0013.61,0005.56
2023-08-08 17:02:00,SystemResetWarning,0831.4,5.00,000.00,029.0,027.5,000.0,037.5,030.8,32.0,-000.6,0006.59,0013.11,0005.58
2023-08-08 17:03:00,SystemResetWarning,0831.4,5.00,000.00,029.1,027.7,000.0,037.6,030.8,31.8,-000.3,0006.57,0013.46,0005.56
2023-08-08 17:04:00,SystemResetWarning,0831.4,4.99,000.00,029.1,027.8,000.0,037.6,030.9,31.8,0000.1,0006.53,0013.77,0005.54
2023-08-08 17:05:00,SystemResetWarning,0831.4,4.99,000.00,029.1,028.0,000.0,037.6,030.9,31.9,0000.7,0006.56,0013.72,0005.53
2023-08-08 17:06:00,SystemResetWarning,0831.4,5.01,000.00,029.2,028.1,000.0,037.6,031.0,32.0,0000.5,0006.60,0013.68,0005.55
2023-08-08 17:07:00,SystemResetWarning,0831.3,5.00,000.00,029.2,027.9,000.0,037.6,031.0,31.9,0000.5,0006.62,0013.44,0005.56
2023-08-08 17:08:00,SystemResetWarning,0831.3,5.00,000.00,029.2,026.4,000.0,037.5,030.8,31.8,0000.8,0006.68,0013.35,0005.56
2023-08-08 17:09:00,SystemResetWarning,0831.3,5.00,000.00,029.2,025.6,000.0,037.4,030.6,31.9,0001.0,0006.72,0013.12,0005.57
2023-08-08 17:10:00,SystemResetWarning,0831.3,5.01,000.00,029.1,025.7,000.0,037.4,030.4,32.1,0001.2,0006.71,0013.01,0005.57
2023-08-08 17:11:00,SystemResetWarning,0831.3,5.00,000.00,029.0,026.0,000.0,037.5,030.4,32.7,0001.1,0006.68,0012.92,0005.57
2023-08-08 17:12:00,SystemResetWarning,0831.3,5.00,000.00,029.0,026.4,000.0,037.5,030.6,33.6,0001.0,0006.62,0012.59,0005.54
2023-08-08 17:13:00,SystemResetWarning,0831.3,5.00,000.00,029.0,026.8,000.0,037.5,030.7,33.8,0001.4,0006.61,0012.53,0005.53
2023-08-08 17:14:00,SystemResetWarning,0831.3,5.00,000.00,029.1,027.1,000.0,037.6,030.7,33.3,0001.0,0006.57,0011.85,0005.53
2023-08-08 17:15:00,SystemResetWarning,0831.3,5.00,000.00,029.1,027.3,000.0,037.6,030.8,32.9,0000.9,0006.57,0011.23,0005.54
2023-08-08 17:16:00,SystemResetWarning,0831.3,4.99,000.00,029.1,027.6,000.0,037.6,030.9,32.2,0000.7,0006.57,0010.91,0005.54
2023-08-08 17:17:00,SystemResetWarning,0831.4,5.00,000.00,029.2,027.7,000.0,037.6,030.9,32.2,0000.6,0006.59,0011.39,0005.55
2023-08-08 17:18:00,SystemResetWarning,0831.4,5.00,000.00,029.2,027.9,000.0,037.7,031.0,32.2,0000.3,0006.57,0011.75,0005.56
2023-08-08 17:19:00,SystemResetWarning,0831.3,4.99,000.00,029.2,028.0,000.0,037.7,031.0,32.5,-000.2,0006.55,0012.18,0005.58
2023-08-08 17:20:00,SystemResetWarning,0831.3,4.99,000.00,029.3,026.8,000.0,037.6,030.8,32.3,-000.9,0006.53,0012.45,0005.58
2023-08-08 17:21:00,SystemResetWarning,0831.3,5.01,000.00,029.2,025.3,000.0,037.5,030.6,32.5,-000.6,0006.54,0012.72,0005.59
2023-08-08 17:22:00,SystemResetWarning,0831.3,5.01,000.00,029.1,024.9,000.0,037.4,030.4,32.4,0000.2,0006.53,0012.61,0005.60
2023-08-08 17:23:00,SystemResetWarning,0831.3,5.01,000.00,029.0,025.1,000.0,037.4,030.2,32.8,0000.9,0006.58,0012.68,0005.63
2023-08-08 17:24:00,SystemResetWarning,0831.3,5.00,000.00,028.9,025.5,000.0,037.4,030.3,32.9,0001.3,0006.62,0012.90,0005.65
2023-08-08 17:25:00,SystemResetWarning,0831.3,5.00,000.00,028.9,026.0,000.0,037.5,030.4,32.8,0001.7,0006.65,0013.50,0005.67
2023-08-08 17:26:00,SystemResetWarning,0831.3,5.00,000.00,028.9,026.4,000.0,037.5,030.5,33.0,0001.8,0006.70,0014.07,0005.69
2023-08-08 17:27:00,SystemResetWarning,0831.3,4.99,000.00,028.9,026.7,000.0,037.5,030.6,33.2,0002.1,0006.77,0014.65,0005.72
2023-08-08 17:28:00,SystemResetWarning,0831.3,5.00,000.00,029.0,027.1,000.0,037.5,030.7,33.2,0001.7,0006.74,0014.45,0005.72
2023-08-08 17:29:00,SystemResetWarning,0831.3,5.00,000.00,029.0,027.3,000.0,037.5,030.8,33.2,0001.6,0006.75,0014.18,0005.73
2023-08-08 17:30:00,SystemResetWarning,0831.3,5.00,000.00,029.1,027.5,000.0,037.5,030.8,33.8,0001.2,0006.73,0013.77,0005.73
2023-08-08 17:31:00,SystemResetWarning,0831.3,5.00,000.00,029.1,027.7,000.0,037.6,030.9,33.8,0001.5,0006.72,0013.88,0005.74
2023-08-08 17:32:00,SystemResetWarning,0831.3,5.00,000.00,029.1,027.9,000.0,037.6,030.9,33.5,0001.5,0006.68,0015.00,0005.74
2023-08-08 17:33:00,SystemResetWarning,0831.3,5.00,000.00,029.2,028.0,000.0,037.6,031.0,33.2,0001.2,0006.68,0015.67,0005.74
2023-08-08 17:34:00,SystemResetWarning,0831.3,4.99,000.00,029.2,028.0,000.0,037.6,031.0,33.2,0000.5,0006.69,0015.59,0005.75
2023-08-08 17:35:00,SystemResetWarning,0831.3,5.00,000.00,029.2,026.7,000.0,037.5,030.8,33.1,-000.1,0006.74,0015.62,0005.75
2023-08-08 17:36:00,SystemResetWarning,0831.2,5.00,000.00,029.2,025.2,000.0,037.4,030.5,32.6,-000.1,0006.71,0015.81,0005.74
2023-08-08 17:37:00,SystemResetWarning,0831.2,5.01,000.00,029.1,024.8,000.0,037.3,030.4,32.8,-000.5,0006.72,0016.33,0005.73
2023-08-08 17:38:00,SystemResetWarning,0831.2,5.02,000.00,029.0,025.0,000.0,037.4,030.2,33.2,-001.0,0006.66,0015.99,0005.71
2023-08-08 17:39:00,SystemResetWarning,0831.2,5.00,000.00,028.9,025.5,000.0,037.4,030.3,33.6,-000.8,0006.66,0016.25,0005.70
2023-08-08 17:40:00,SystemResetWarning,0831.2,5.00,000.00,028.9,025.9,000.0,037.4,030.4,33.9,-000.7,0006.63,0016.15,0005.69
2023-08-08 17:41:00,SystemResetWarning,0831.2,5.00,000.00,028.9,026.3,000.0,037.4,030.5,33.8,-001.2,0006.68,0016.15,0005.69
2023-08-08 17:42:00,SystemResetWarning,0831.2,5.00,000.00,028.9,026.7,000.0,037.5,030.6,33.5,-001.4,0006.70,0016.00,0005.68
2023-08-08 17:43:00,SystemResetWarning,0831.2,4.99,000.00,029.0,027.0,000.0,037.5,030.7,33.5,-001.4,0006.75,0014.70,0005.68
2023-08-08 17:44:00,SystemResetWarning,0831.1,4.99,000.00,029.0,027.3,000.0,037.5,030.7,34.6,-001.4,0006.77,0013.98,0005.68
2023-08-08 17:45:00,SystemResetWarning,0831.1,5.03,000.00,029.1,027.5,000.0,037.5,030.8,33.7,-001.3,0006.78,0013.99,0005.67
2023-08-08 17:46:00,SystemResetWarning,0831.2,4.98,000.00,029.2,027.7,000.0,037.5,030.9,33.9,-001.4,0006.71,0013.90,0005.67
2023-08-08 17:47:00,SystemResetWarning,0831.1,4.99,000.00,029.2,027.9,000.0,037.6,030.9,33.9,-001.5,0006.69,0013.49,0005.68
2023-08-08 17:48:00,SystemResetWarning,0831.1,5.01,000.00,029.3,028.0,000.0,037.6,031.0,33.7,-001.5,0006.71,0012.56,0005.70
2023-08-08 17:49:00,SystemResetWarning,0831.2,5.01,000.00,029.3,028.0,000.0,037.6,031.0,33.3,-001.2,0006.73,0012.70,0005.72
2023-08-08 17:50:00,SystemResetWarning,0831.1,4.98,000.00,029.4,026.7,000.0,037.5,030.8,32.8,-000.9,0006.76,0012.42,0005.73
2023-08-08 17:51:00,SystemResetWarning,0831.2,5.01,000.00,029.3,025.3,000.0,037.4,030.5,33.1,-000.9,0006.78,0012.39,0005.73
2023-08-08 17:52:00,SystemResetWarning,0831.1,5.02,000.00,029.2,025.1,000.0,037.4,030.4,34.1,-000.3,0006.77,0013.27,0005.72
2023-08-08 17:53:00,SystemResetWarning,0831.1,4.99,000.00,029.1,025.3,000.0,037.4,030.3,33.7,0000.2,0006.72,0013.14,0005.71
2023-08-08 17:54:00,SystemResetWarning,0831.1,5.00,000.00,029.1,025.7,000.0,037.5,030.4,33.7,0000.5,0006.68,0013.50,0005.71
2023-08-08 17:55:00,SystemResetWarning,0831.1,5.00,000.00,029.1,026.2,000.0,037.5,030.5,33.8,0000.6,0006.72,0014.38,0005.70
2023-08-08 17:56:00,SystemResetWarning,0831.1,5.01,000.00,029.1,026.6,000.0,037.5,030.6,34.0,0000.9,0006.71,0015.37,0005.69
2023-08-08 17:57:00,SystemResetWarning,0831.1,5.00,000.00,029.1,026.9,000.0,037.6,030.7,34.1,0001.5,0006.70,0015.52,0005.68
2023-08-08 17:58:00,SystemResetWarning,0831.1,5.00,000.00,029.1,027.2,000.0,037.6,030.8,33.8,0001.6,0006.68,0015.28,0005.66
2023-08-08 17:59:00,SystemResetWarning,0831.1,5.00,000.00,029.2,027.5,000.0,037.6,030.8,33.9,0001.4,0006.69,0015.30,0005.65
